Location: Lombray
(49.5154°N, 3.1089°E)
Time: 08:25:50
(UTC+00:00)

Cosmos 1634 Rocket - Pass Details

Date: 15 May 2026
Orbit: 960 x 990 km, 82.9° (Epoch: 5 June)

Event Time Altitude Azimuth Distance (km) Brightness Sun altitude
Exits shadow 22:22:33 31° 177° (S) 1,618 4.6 -19.1°
Maximum altitude 22:25:41 77° 96° (E) 992 3.9 -19.3°
Drops below altitude 10° 22:31:54 10° 12° (NNE) 2,722 7.2 -19.6°
Sets 22:34:26 0° 11° (N) 3,677 8.1 -19.7°
